QPF
0.10 0.11 0.12 0.14 0.18 0.18 0.18 0.17 0.12 0.11 0.10 0.08 0.07 0.05 0.05 0.04 0.03 0.02 0.02 0.03 0.07 0.11 0.16 0.16 0.12 0.08 0.06 0.05 0.04 0.03 0.03 0.02 0.01 0.01 0.01 0.01 0.01 0.00 0.01 0.01 0.00 0.00 0.00
0.10 0.13 0.14 0.14 0.14 0.13 0.14 0.15 0.13 0.11 0.10 0.09 0.08 0.07 0.06 0.06 0.04 0.03 0.03 0.03 0.06 0.10 0.14 0.19 0.20 0.16 0.10 0.07 0.05 0.04 0.04 0.03 0.01 0.01 0.01 0.01 0.01 0.01 0.00 0.00 0.00 0.00 0.00
0.11 0.11 0.13 0.12 0.09 0.07 0.07 0.09 0.10 0.12 0.12 0.10 0.11 0.09 0.07 0.06 0.05 0.04 0.03 0.04 0.04 0.07 0.11 0.15 0.20 0.21 0.18 0.13 0.08 0.06 0.06 0.05 0.02 0.01 0.01 0.01 0.01 0.01 0.00 0.00 0.00 0.00 0.00
0.09 0.10 0.08 0.06 0.05 0.04 0.04 0.07 0.09 0.11 0.11 0.09 0.09 0.09 0.06 0.05 0.05 0.04 0.03 0.03 0.04 0.04 0.06 0.12 0.20 0.23 0.23 0.18 0.14 0.09 0.07 0.06 0.04 0.02 0.01 0.01 0.00 0.01 0.00 0.00 0.00 0.00 0.00
0.07 0.06 0.04 0.03 0.04 0.04 0.04 0.05 0.05 0.07 0.07 0.07 0.06 0.06 0.05 0.04 0.04 0.03 0.03 0.03 0.03 0.03 0.05 0.08 0.16 0.19 0.20 0.23 0.22 0.17 0.14 0.11 0.07 0.04 0.02 0.01 0.01 0.00 0.00 0.00 0.00 0.00 0.00
0.04 0.03 0.02 0.03 0.02 0.03 0.04 0.04 0.05 0.06 0.06 0.06 0.06 0.05 0.04 0.04 0.04 0.03 0.02 0.03 0.04 0.04 0.05 0.07 0.08 0.12 0.15 0.18 0.21 0.21 0.17 0.13 0.10 0.08 0.05 0.04 0.03 0.01 0.01 0.00 0.00 0.00 0.00
0.02 0.02 0.02 0.02 0.02 0.03 0.03 0.02 0.03 0.04 0.04 0.04 0.04 0.04 0.03 0.03 0.03 0.04 0.03 0.03 0.03 0.04 0.05 0.05 0.07 0.07 0.08 0.11 0.14 0.18 0.20 0.18 0.14 0.10 0.08 0.05 0.03 0.01 0.01 0.01 0.01 0.01 0.00
0.00 0.00 0.00 0.00 0.00 0.00 0.00 0.01 0.01 0.01 0.01 0.01 0.01 0.02 0.02 0.02 0.02 0.03 0.03 0.03 0.04 0.04 0.04 0.04 0.05 0.06 0.08 0.09 0.08 0.14 0.20 0.23 0.23 0.16 0.10 0.08 0.06 0.04 0.02 0.01 0.01 0.01 0.00
0.00 0.00 0.00 0.00 0.00 0.00 0.00 0.00 0.00 0.00 0.00 0.00 0.01 0.01 0.01 0.00 0.01 0.01 0.02 0.02 0.03 0.04 0.04 0.04 0.04 0.05 0.07 0.08 0.07 0.09 0.15 0.17 0.22 0.24 0.19 0.13 0.08 0.07 0.05 0.03 0.01 0.01 0.01
0.00 0.00 0.00 0.00 0.00 0.00 0.00 0.00 0.00 0.00 0.00 0.00 0.00 0.01 0.01 0.01 0.01 0.00 0.00 0.01 0.01 0.01 0.02 0.03 0.03 0.03 0.05 0.07 0.06 0.07 0.09 0.11 0.15 0.23 0.26 0.21 0.14 0.09 0.07 0.06 0.04 0.02 0.01
0.00 0.00 0.00 0.00 0.00 0.00 0.01 0.01 0.01 0.00 0.00 0.00 0.00 0.00 0.01 0.01 0.01 0.01 0.00 0.00 0.01 0.01 0.01 0.02 0.02 0.02 0.04 0.06 0.06 0.06 0.07 0.08 0.11 0.17 0.23 0.25 0.23 0.17 0.11 0.07 0.06 0.05 0.02
0.00 0.00 0.00 0.00 0.00 0.00 0.00 0.00 0.00 0.00 0.00 0.00 0.00 0.00 0.00 0.00 0.01 0.01 0.01 0.01 0.01 0.01 0.01 0.01 0.01 0.02 0.03 0.04 0.04 0.05 0.06 0.08 0.09 0.10 0.13 0.18 0.24 0.25 0.22 0.16 0.12 0.09 0.05
0.00 0.00 0.00 0.00 0.00 0.00 0.00 0.00 0.00 0.00 0.00 0.00 0.00 0.00 0.00 0.00 0.00 0.01 0.01 0.00 0.01 0.02 0.01 0.00 0.00 0.01 0.02 0.03 0.03 0.05 0.06 0.08 0.08 0.09 0.11 0.14 0.16 0.19 0.20 0.22 0.20 0.16 0.11
0.00 0.00 0.00 0.00 0.00 0.00 0.00 0.00 0.00 0.00 0.00 0.00 0.00 0.00 0.00 0.00 0.00 0.01 0.01 0.01 0.01 0.01 0.02 0.01 0.00 0.01 0.01 0.02 0.04 0.05 0.04 0.05 0.06 0.07 0.08 0.09 0.12 0.15 0.16 0.16 0.18 0.18 0.16
0.00 0.00 0.00 0.00 0.00 0.00 0.00 0.00 0.00 0.00 0.00 0.00 0.00 0.00 0.00 0.00 0.00 0.00 0.00 0.01 0.01 0.01 0.01 0.01 0.01 0.01 0.01 0.01 0.02 0.03 0.03 0.04 0.06 0.07 0.07 0.06 0.06 0.08 0.10 0.11 0.10 0.11 0.11
0.00 0.00 0.00 0.00 0.00 0.00 0.00 0.00 0.00 0.00 0.00 0.00 0.00 0.00 0.00 0.00 0.00 0.00 0.00 0.00 0.01 0.01 0.01 0.01 0.01 0.01 0.01 0.01 0.01 0.02 0.02 0.03 0.04 0.05 0.05 0.05 0.05 0.06 0.06 0.08 0.08 0.07 0.08
0.00 0.00 0.00 0.00 0.00 0.00 0.00 0.00 0.00 0.00 0.00 0.00 0.00 0.00 0.00 0.00 0.00 0.00 0.00 0.00 0.00 0.01 0.01 0.01 0.01 0.01 0.01 0.01 0.01 0.01 0.02 0.02 0.03 0.03 0.03 0.03 0.04 0.05 0.04 0.04 0.06 0.07 0.07
0.00 0.00 0.00 0.00 0.00 0.00 0.00 0.00 0.00 0.00 0.00 0.00 0.00 0.00 0.00 0.00 0.00 0.00 0.00 0.00 0.00 0.01 0.01 0.01 0.01 0.01 0.02 0.01 0.01 0.01 0.01 0.01 0.01 0.02 0.02 0.02 0.03 0.04 0.04 0.04 0.04 0.04 0.06
0.00 0.00 0.00 0.00 0.00 0.00 0.00 0.00 0.00 0.00 0.00 0.00 0.00 0.00 0.00 0.00 0.00 0.00 0.00 0.00 0.00 0.00 0.01 0.01 0.01 0.01 0.02 0.02 0.02 0.01 0.01 0.01 0.01 0.01 0.01 0.02 0.02 0.02 0.02 0.03 0.04 0.04 0.04
0.00 0.00 0.00 0.00 0.00 0.00 0.00 0.00 0.00 0.00 0.00 0.00 0.00 0.00 0.00 0.00 0.00 0.00 0.00 0.00 0.00 0.00 0.00 0.00 0.01 0.01 0.02 0.02 0.02 0.02 0.01 0.01 0.01 0.01 0.01 0.01 0.01 0.01 0.01 0.02 0.03 0.04 0.04
0.00 0.00 0.00 0.00 0.00 0.00 0.00 0.00 0.00 0.00 0.00 0.00 0.00 0.00 0.00 0.00 0.00 0.00 0.00 0.00 0.00 0.00 0.00 0.00 0.01 0.01 0.01 0.02 0.02 0.02 0.02 0.01 0.01 0.01 0.01 0.01 0.01 0.01 0.01 0.01 0.02 0.02 0.03
0.00 0.00 0.00 0.00 0.00 0.00 0.00 0.00 0.00 0.00 0.00 0.00 0.00 0.00 0.00 0.00 0.00 0.00 0.00 0.00 0.00 0.00 0.00 0.00 0.00 0.01 0.01 0.02 0.02 0.02 0.02 0.02 0.01 0.01 0.01 0.01 0.01 0.01 0.01 0.01 0.01 0.01 0.01
0.00 0.00 0.00 0.00 0.00 0.00 0.00 0.00 0.00 0.00 0.00 0.00 0.00 0.00 0.00 0.00 0.00 0.00 0.00 0.00 0.00 0.00 0.00 0.01 0.00 0.00 0.00 0.01 0.02 0.03 0.03 0.02 0.01 0.01 0.01 0.01 0.02 0.02 0.02 0.01 0.01 0.02 0.02
0.00 0.00 0.00 0.00 0.00 0.00 0.00 0.00 0.00 0.00 0.00 0.00 0.00 0.00 0.00 0.00 0.00 0.00 0.00 0.00 0.00 0.00 0.00 0.01 0.01 0.01 0.01 0.01 0.01 0.02 0.02 0.03 0.03 0.02 0.01 0.01 0.02 0.02 0.03 0.02 0.02 0.02 0.02
0.00 0.00 0.00 0.00 0.00 0.00 0.00 0.00 0.00 0.00 0.00 0.00 0.00 0.00 0.00 0.00 0.00 0.00 0.00 0.00 0.00 0.00 0.00 0.00 0.00 0.01 0.01 0.01 0.01 0.01 0.02 0.03 0.03 0.02 0.01 0.01 0.01 0.02 0.03 0.04 0.04 0.03 0.03
0.00 0.00 0.00 0.00 0.00 0.00 0.00 0.00 0.00 0.00 0.00 0.00 0.00 0.00 0.00 0.00 0.00 0.00 0.00 0.00 0.01 0.01 0.01 0.01 0.01 0.01 0.01 0.01 0.02 0.01 0.01 0.02 0.03 0.02 0.02 0.01 0.02 0.02 0.04 0.05 0.05 0.05 0.04
MSLP
1016.00 1016.06 1016.07 1016.08 1016.11 1016.20 1016.35 1016.56 1016.81 1017.07 1017.29 1017.46 1017.56 1017.60 1017.59 1017.57 1017.54 1017.55 1017.60 1017.70 1017.84 1018.04 1018.28 1018.57 1018.89 1019.25 1019.63 1020.03 1020.43 1020.82 1021.16 1021.47 1021.73 1021.95 1022.14 1022.34 1022.55 1022.79 1023.06 1023.35 1023.65 1023.94 1024.22
1015.98 1016.04 1016.07 1016.10 1016.15 1016.24 1016.39 1016.60 1016.84 1017.09 1017.31 1017.48 1017.60 1017.65 1017.65 1017.62 1017.58 1017.55 1017.54 1017.58 1017.67 1017.82 1018.02 1018.27 1018.58 1018.94 1019.34 1019.76 1020.18 1020.58 1020.95 1021.27 1021.55 1021.79 1022.02 1022.24 1022.47 1022.72 1023.01 1023.31 1023.61 1023.91 1024.19
1015.89 1015.99 1016.05 1016.12 1016.21 1016.33 1016.49 1016.69 1016.92 1017.15 1017.36 1017.53 1017.64 1017.70 1017.70 1017.67 1017.61 1017.55 1017.50 1017.49 1017.51 1017.59 1017.74 1017.95 1018.23 1018.58 1018.97 1019.39 1019.82 1020.24 1020.63 1020.98 1021.29 1021.56 1021.81 1022.06 1022.32 1022.59 1022.89 1023.20 1023.52 1023.83 1024.11
1015.78 1015.91 1016.03 1016.15 1016.29 1016.45 1016.63 1016.83 1017.04 1017.24 1017.42 1017.57 1017.67 1017.72 1017.73 1017.70 1017.63 1017.55 1017.47 1017.40 1017.36 1017.38 1017.46 1017.61 1017.84 1018.15 1018.53 1018.94 1019.37 1019.81 1020.22 1020.59 1020.93 1021.24 1021.52 1021.80 1022.08 1022.38 1022.70 1023.03 1023.36 1023.68 1023.98
1015.67 1015.84 1016.01 1016.20 1016.40 1016.60 1016.80 1016.99 1017.17 1017.33 1017.47 1017.58 1017.66 1017.71 1017.72 1017.69 1017.63 1017.54 1017.43 1017.32 1017.23 1017.18 1017.18 1017.27 1017.44 1017.69 1018.03 1018.42 1018.84 1019.27 1019.70 1020.10 1020.47 1020.80 1021.12 1021.44 1021.75 1022.08 1022.41 1022.76 1023.11 1023.45 1023.77
1015.63 1015.81 1016.04 1016.28 1016.53 1016.76 1016.97 1017.14 1017.28 1017.40 1017.48 1017.56 1017.61 1017.64 1017.66 1017.64 1017.59 1017.50 1017.39 1017.25 1017.11 1017.00 1016.93 1016.93 1017.03 1017.21 1017.49 1017.83 1018.23 1018.65 1019.08 1019.50 1019.89 1020.26 1020.62 1020.97 1021.31 1021.67 1022.03 1022.40 1022.77 1023.13 1023.48
1015.69 1015.88 1016.12 1016.40 1016.67 1016.92 1017.12 1017.27 1017.37 1017.43 1017.46 1017.49 1017.52 1017.54 1017.56 1017.57 1017.54 1017.47 1017.35 1017.20 1017.02 1016.85 1016.71 1016.63 1016.64 1016.74 1016.94 1017.22 1017.57 1017.97 1018.38 1018.81 1019.22 1019.62 1020.01 1020.39 1020.77 1021.15 1021.54 1021.93 1022.33 1022.72 1023.10
1015.88 1016.05 1016.29 1016.57 1016.84 1017.08 1017.27 1017.38 1017.43 1017.44 1017.42 1017.41 1017.41 1017.44 1017.47 1017.49 1017.49 1017.45 1017.34 1017.18 1016.97 1016.75 1016.54 1016.38 1016.29 1016.30 1016.40 1016.61 1016.89 1017.24 1017.63 1018.04 1018.46 1018.88 1019.30 1019.71 1020.12 1020.53 1020.94 1021.36 1021.77 1022.19 1022.60
1016.20 1016.33 1016.54 1016.80 1017.05 1017.27 1017.41 1017.48 1017.49 1017.45 1017.39 1017.35 1017.34 1017.36 1017.41 1017.46 1017.49 1017.47 1017.37 1017.21 1016.98 1016.71 1016.44 1016.19 1016.01 1015.91 1015.92 1016.03 1016.23 1016.52 1016.86 1017.25 1017.66 1018.08 1018.52 1018.95 1019.38 1019.81 1020.25 1020.68 1021.12 1021.56 1022.00
1016.61 1016.70 1016.87 1017.08 1017.30 1017.47 1017.58 1017.61 1017.57 1017.49 1017.41 1017.35 1017.33 1017.36 1017.42 1017.49 1017.54 1017.54 1017.46 1017.29 1017.04 1016.74 1016.41 1016.08 1015.81 1015.62 1015.52 1015.53 1015.64 1015.84 1016.12 1016.46 1016.85 1017.27 1017.70 1018.14 1018.59 1019.04 1019.49 1019.94 1020.39 1020.84 1021.29
1017.07 1017.12 1017.24 1017.40 1017.57 1017.69 1017.76 1017.76 1017.69 1017.59 1017.50 1017.43 1017.41 1017.44 1017.51 1017.59 1017.66 1017.66 1017.59 1017.41 1017.15 1016.82 1016.44 1016.06 1015.71 1015.43 1015.23 1015.13 1015.14 1015.26 1015.46 1015.74 1016.09 1016.48 1016.90 1017.34 1017.80 1018.25 1018.71 1019.16 1019.61 1020.06 1020.52
1017.51 1017.52 1017.60 1017.72 1017.84 1017.92 1017.95 1017.92 1017.84 1017.74 1017.64 1017.57 1017.56 1017.59 1017.66 1017.75 1017.81 1017.82 1017.74 1017.56 1017.29 1016.93 1016.53 1016.11 1015.70 1015.34 1015.06 1014.88 1014.79 1014.81 1014.93 1015.14 1015.42 1015.77 1016.17 1016.59 1017.04 1017.49 1017.94 1018.38 1018.82 1019.26 1019.71
1017.88 1017.87 1017.92 1018.00 1018.08 1018.13 1018.13 1018.09 1018.01 1017.91 1017.81 1017.76 1017.74 1017.78 1017.84 1017.92 1017.97 1017.96 1017.87 1017.69 1017.42 1017.06 1016.65 1016.21 1015.77 1015.37 1015.03 1014.77 1014.60 1014.52 1014.55 1014.68 1014.89 1015.19 1015.54 1015.94 1016.36 1016.79 1017.23 1017.65 1018.07 1018.49 1018.91
1018.14 1018.13 1018.16 1018.21 1018.26 1018.28 1018.27 1018.22 1018.14 1018.05 1017.98 1017.93 1017.92 1017.95 1018.00 1018.06 1018.08 1018.06 1017.96 1017.78 1017.51 1017.16 1016.77 1016.34 1015.90 1015.48 1015.10 1014.79 1014.55 1014.40 1014.35 1014.39 1014.53 1014.76 1015.05 1015.41 1015.80 1016.20 1016.61 1017.00 1017.39 1017.77 1018.15
1018.28 1018.28 1018.29 1018.32 1018.35 1018.35 1018.33 1018.28 1018.21 1018.14 1018.08 1018.04 1018.03 1018.05 1018.09 1018.11 1018.12 1018.07 1017.96 1017.78 1017.53 1017.21 1016.85 1016.45 1016.04 1015.64 1015.26 1014.92 1014.64 1014.43 1014.30 1014.27 1014.33 1014.49 1014.72 1015.02 1015.35 1015.72 1016.09 1016.45 1016.80 1017.14 1017.47
1018.33 1018.32 1018.33 1018.34 1018.34 1018.33 1018.30 1018.26 1018.20 1018.14 1018.09 1018.06 1018.05 1018.06 1018.07 1018.07 1018.04 1017.97 1017.85 1017.68 1017.45 1017.18 1016.87 1016.53 1016.17 1015.81 1015.45 1015.12 1014.82 1014.57 1014.39 1014.29 1014.28 1014.36 1014.52 1014.75 1015.03 1015.34 1015.67 1015.98 1016.29 1016.58 1016.87
1018.29 1018.28 1018.28 1018.27 1018.25 1018.22 1018.19 1018.14 1018.09 1018.04 1018.00 1017.98 1017.96 1017.96 1017.94 1017.92 1017.86 1017.77 1017.64 1017.48 1017.28 1017.05 1016.80 1016.53 1016.24 1015.94 1015.63 1015.32 1015.03 1014.77 1014.55 1014.40 1014.33 1014.34 1014.43 1014.59 1014.81 1015.06 1015.32 1015.58 1015.84 1016.08 1016.32
1018.20 1018.19 1018.16 1018.13 1018.09 1018.05 1018.00 1017.95 1017.90 1017.86 1017.83 1017.80 1017.79 1017.77 1017.73 1017.68 1017.60 1017.49 1017.36 1017.20 1017.02 1016.84 1016.64 1016.44 1016.22 1015.99 1015.74 1015.48 1015.22 1014.96 1014.74 1014.55 1014.43 1014.38 1014.40 1014.49 1014.63 1014.81 1015.00 1015.21 1015.40 1015.59 1015.78
1018.09 1018.05 1018.01 1017.96 1017.90 1017.84 1017.77 1017.71 1017.66 1017.62 1017.60 1017.58 1017.55 1017.52 1017.47 1017.40 1017.30 1017.17 1017.02 1016.87 1016.71 1016.55 1016.40 1016.26 1016.11 1015.94 1015.76 1015.55 1015.33 1015.10 1014.88 1014.68 1014.53 1014.42 1014.38 1014.39 1014.46 1014.56 1014.68 1014.81 1014.94 1015.07 1015.21
1017.94 1017.89 1017.84 1017.77 1017.69 1017.61 1017.54 1017.47 1017.41 1017.38 1017.35 1017.33 1017.30 1017.27 1017.21 1017.12 1016.99 1016.85 1016.69 1016.52 1016.36 1016.22 1016.10 1015.99 1015.89 1015.78 1015.65 1015.50 1015.33 1015.14 1014.93 1014.74 1014.56 1014.42 1014.32 1014.26 1014.25 1014.26 1014.30 1014.35 1014.41 1014.48 1014.56
1017.77 1017.71 1017.65 1017.57 1017.49 1017.40 1017.31 1017.23 1017.17 1017.13 1017.11 1017.09 1017.06 1017.02 1016.96 1016.85 1016.72 1016.55 1016.37 1016.19 1016.02 1015.87 1015.75 1015.66 1015.58 1015.51 1015.42 1015.32 1015.19 1015.04 1014.86 1014.68 1014.49 1014.32 1014.18 1014.06 1013.97 1013.90 1013.85 1013.82 1013.81 1013.81 1013.83
1017.56 1017.51 1017.45 1017.37 1017.28 1017.19 1017.09 1017.01 1016.95 1016.91 1016.88 1016.86 1016.84 1016.80 1016.73 1016.62 1016.48 1016.29 1016.09 1015.88 1015.68 1015.51 1015.37 1015.27 1015.20 1015.14 1015.08 1015.01 1014.92 1014.80 1014.65 1014.48 1014.30 1014.11 1013.93 1013.76 1013.60 1013.46 1013.33 1013.22 1013.12 1013.06 1013.02
1017.31 1017.28 1017.23 1017.16 1017.07 1016.98 1016.88 1016.80 1016.73 1016.68 1016.66 1016.64 1016.63 1016.59 1016.52 1016.41 1016.26 1016.06 1015.83 1015.59 1015.36 1015.15 1014.98 1014.85 1014.75 1014.69 1014.63 1014.58 1014.50 1014.41 1014.29 1014.14 1013.96 1013.77 1013.57 1013.36 1013.15 1012.94 1012.74 1012.56 1012.40 1012.26 1012.17
1017.02 1017.01 1016.98 1016.93 1016.85 1016.76 1016.66 1016.57 1016.49 1016.44 1016.41 1016.40 1016.39 1016.36 1016.30 1016.19 1016.03 1015.82 1015.58 1015.31 1015.04 1014.79 1014.58 1014.40 1014.27 1014.17 1014.10 1014.04 1013.98 1013.89 1013.79 1013.65 1013.49 1013.29 1013.08 1012.85 1012.61 1012.36 1012.11 1011.87 1011.66 1011.47 1011.32
1016.71 1016.72 1016.71 1016.67 1016.59 1016.50 1016.39 1016.29 1016.21 1016.15 1016.12 1016.11 1016.10 1016.07 1016.02 1015.92 1015.76 1015.54 1015.28 1015.00 1014.70 1014.41 1014.15 1013.93 1013.76 1013.62 1013.52 1013.44 1013.36 1013.28 1013.17 1013.04 1012.89 1012.70 1012.49 1012.25 1012.00 1011.73 1011.46 1011.19 1010.94 1010.71 1010.53
1016.37 1016.40 1016.40 1016.36 1016.28 1016.18 1016.06 1015.95 1015.85 1015.78 1015.75 1015.73 1015.72 1015.70 1015.65 1015.56 1015.41 1015.19 1014.93 1014.63 1014.31 1013.99 1013.70 1013.44 1013.22 1013.05 1012.91 1012.80 1012.69 1012.59 1012.48 1012.35 1012.20 1012.02 1011.81 1011.59 1011.34 1011.08 1010.81 1010.54 1010.27 1010.03 1009.82
Thickness
5726 5725 5723 5722 5721 5720 5719 5718 5717 5716 5716 5716 5716 5716 5716 5716 5717 5719 5720 5721 5722 5722 5722 5722 5721 5719 5719 5719 5719 5718 5718 5717 5717 5717 5716 5715 5715 5714 5713 5712 5711 5710 5710
5724 5722 5721 5719 5718 5718 5717 5715 5714 5713 5713 5713 5713 5713 5713 5714 5715 5716 5717 5718 5719 5720 5720 5720 5719 5718 5718 5717 5717 5717 5717 5717 5716 5716 5715 5715 5714 5713 5712 5712 5711 5710 5709
5721 5719 5717 5716 5715 5714 5714 5713 5711 5710 5710 5710 5710 5710 5710 5711 5712 5713 5714 5716 5716 5717 5717 5718 5718 5717 5716 5716 5716 5716 5716 5716 5715 5715 5714 5714 5713 5712 5712 5711 5710 5709 5709
5718 5716 5714 5713 5712 5711 5710 5709 5708 5707 5706 5706 5706 5706 5707 5708 5709 5710 5711 5712 5713 5714 5715 5716 5716 5716 5715 5715 5715 5716 5715 5715 5715 5714 5713 5713 5712 5712 5711 5710 5710 5709 5708
5714 5712 5710 5709 5708 5708 5706 5705 5704 5703 5701 5701 5701 5703 5703 5704 5705 5707 5708 5709 5710 5711 5712 5713 5714 5714 5715 5715 5715 5715 5714 5714 5714 5713 5713 5712 5712 5711 5711 5710 5709 5709 5708
5710 5708 5707 5705 5705 5703 5702 5700 5699 5698 5697 5696 5697 5699 5699 5701 5702 5703 5705 5706 5707 5708 5709 5710 5711 5712 5713 5714 5714 5714 5714 5713 5713 5713 5712 5712 5711 5711 5710 5710 5709 5708 5707
5706 5705 5703 5701 5700 5698 5697 5696 5694 5693 5691 5691 5691 5691 5694 5696 5698 5699 5700 5702 5704 5705 5706 5707 5708 5709 5711 5713 5713 5713 5713 5713 5712 5712 5712 5712 5711 5711 5710 5709 5709 5708 5707
5702 5701 5699 5697 5695 5694 5692 5691 5689 5687 5686 5686 5684 5682 5682 5686 5691 5694 5695 5697 5699 5701 5702 5704 5705 5706 5708 5710 5711 5711 5711 5712 5712 5711 5711 5711 5711 5710 5710 5709 5708 5708 5707
5698 5697 5695 5693 5691 5689 5687 5686 5684 5682 5680 5680 5679 5677 5675 5674 5678 5685 5688 5690 5692 5694 5697 5699 5701 5702 5704 5705 5707 5709 5710 5710 5711 5711 5711 5710 5710 5710 5710 5709 5708 5708 5707
5694 5692 5690 5689 5687 5684 5682 5681 5680 5678 5676 5674 5673 5673 5672 5671 5669 5672 5678 5682 5685 5687 5690 5693 5695 5698 5699 5701 5704 5706 5707 5708 5709 5710 5710 5710 5710 5710 5710 5709 5708 5707 5706
5689 5688 5686 5684 5682 5680 5678 5676 5674 5673 5671 5669 5667 5666 5665 5664 5664 5663 5664 5669 5675 5680 5683 5686 5689 5691 5694 5696 5698 5701 5703 5704 5706 5706 5707 5708 5709 5709 5709 5708 5707 5707 5706
5685 5683 5682 5679 5677 5675 5673 5671 5669 5667 5665 5663 5661 5660 5659 5658 5657 5656 5656 5658 5662 5669 5675 5679 5682 5685 5688 5690 5693 5696 5698 5700 5701 5703 5704 5706 5707 5707 5707 5707 5707 5706 5706
5680 5678 5677 5675 5673 5671 5669 5666 5664 5662 5659 5657 5655 5654 5653 5652 5651 5650 5650 5650 5652 5658 5664 5670 5674 5677 5680 5683 5686 5689 5692 5695 5697 5698 5701 5702 5704 5705 5706 5706 5706 5706 5705
5677 5675 5673 5671 5669 5666 5664 5661 5658 5656 5654 5651 5650 5648 5646 5645 5644 5644 5643 5643 5643 5647 5651 5658 5664 5668 5671 5674 5678 5681 5685 5689 5691 5693 5696 5697 5700 5701 5703 5704 5704 5704 5704
5675 5672 5669 5667 5664 5661 5659 5656 5653 5650 5647 5645 5643 5641 5639 5639 5637 5637 5636 5636 5636 5637 5641 5646 5651 5658 5661 5665 5669 5673 5676 5680 5684 5687 5689 5691 5694 5697 5699 5700 5700 5702 5702
5672 5669 5666 5663 5660 5657 5654 5651 5648 5645 5642 5639 5637 5634 5633 5631 5630 5629 5629 5628 5628 5629 5632 5637 5640 5645 5650 5655 5659 5663 5667 5671 5676 5679 5682 5685 5688 5691 5693 5694 5696 5698 5699
5669 5665 5662 5659 5656 5653 5650 5646 5643 5640 5637 5634 5631 5629 5626 5625 5623 5622 5621 5620 5620 5620 5623 5628 5630 5634 5638 5643 5649 5653 5658 5662 5667 5671 5674 5678 5681 5684 5687 5689 5691 5693 5695
5666 5662 5659 5656 5653 5649 5645 5642 5638 5635 5631 5628 5625 5622 5620 5618 5616 5614 5613 5612 5612 5613 5614 5618 5622 5624 5628 5632 5637 5642 5648 5653 5657 5662 5666 5670 5674 5677 5680 5683 5686 5689 5691
5663 5660 5656 5653 5649 5646 5642 5638 5635 5631 5627 5623 5620 5617 5614 5612 5610 5608 5606 5605 5605 5606 5606 5608 5612 5615 5618 5622 5626 5632 5638 5642 5648 5653 5657 5662 5666 5671 5674 5677 5680 5683 5686
5660 5657 5653 5650 5646 5643 5639 5635 5631 5627 5623 5619 5616 5612 5609 5606 5604 5602 5600 5599 5598 5598 5598 5599 5602 5605 5608 5612 5615 5620 5626 5631 5637 5643 5649 5654 5658 5662 5667 5671 5674 5678 5680
5658 5654 5650 5647 5643 5640 5637 5633 5628 5624 5619 5615 5612 5608 5605 5602 5600 5597 5595 5593 5592 5591 5590 5591 5593 5596 5599 5601 5605 5609 5614 5619 5625 5632 5638 5644 5649 5654 5658 5663 5667 5671 5675
5655 5651 5647 5644 5640 5638 5635 5630 5625 5620 5616 5611 5608 5605 5601 5598 5596 5593 5591 5588 5586 5584 5584 5584 5586 5587 5591 5593 5595 5598 5602 5607 5614 5621 5625 5632 5638 5644 5649 5655 5661 5665 5670
5652 5648 5645 5641 5638 5635 5631 5627 5622 5617 5613 5608 5604 5600 5597 5595 5591 5587 5585 5583 5581 5579 5578 5578 5579 5581 5583 5585 5587 5589 5592 5597 5603 5609 5612 5621 5627 5634 5641 5647 5653 5658 5663
5648 5645 5642 5639 5635 5633 5629 5624 5620 5615 5610 5606 5601 5597 5592 5589 5586 5581 5579 5577 5575 5574 5573 5572 5573 5575 5575 5577 5578 5581 5584 5588 5593 5597 5602 5609 5618 5624 5631 5638 5645 5651 5656
5645 5642 5639 5635 5632 5630 5626 5621 5616 5611 5606 5603 5599 5594 5589 5585 5582 5576 5573 5571 5569 5569 5567 5566 5566 5566 5567 5568 5569 5571 5574 5578 5585 5590 5594 5599 5608 5614 5622 5630 5637 5643 5648
5643 5639 5636 5633 5629 5626 5623 5618 5612 5607 5603 5600 5596 5591 5586 5582 5578 5572 5568 5565 5563 5563 5561 5560 5559 5560 5560 5562 5563 5564 5568 5571 5576 5582 5587 5591 5598 5603 5612 5621 5628 5634 5640